Theta_e
306 306 307 304 306 304 304 305 306 312 317 316 325 328 324 323 317 321 324 328 330 330 329 325 325 330 329 328 328 328 328 328 328 326 327 327 325 322 324 325 325 326 327 327
308 306 303 302 303 307 307 306 306 307 314 317 320 322 323 324 323 319 322 328 329 329 328 327 322 329 329 328 327 327 328 328 328 327 328 327 326 325 324 325 325 325 326 327
307 306 305 303 303 306 307 307 306 305 310 311 313 320 324 323 323 322 321 324 328 328 329 328 323 325 328 328 327 326 327 328 328 327 327 327 325 325 325 325 325 326 327 327
309 307 306 305 304 304 306 306 306 307 309 310 317 325 323 325 324 323 323 319 326 327 328 327 326 323 325 327 327 326 326 326 327 327 327 326 325 324 325 325 326 326 327 328
310 307 308 308 307 305 306 305 306 307 308 310 310 314 320 323 326 324 323 322 320 326 327 328 327 327 323 324 325 326 326 326 327 327 327 327 325 325 325 325 326 326 327 328
309 306 307 307 307 306 306 306 307 307 311 312 309 312 316 323 324 323 323 322 321 322 326 327 327 328 327 323 324 324 325 325 325 326 326 326 325 325 325 325 325 326 327 327
309 309 308 307 308 307 307 309 302 311 313 309 309 315 312 319 319 322 322 322 321 320 324 326 328 327 328 326 323 323 324 324 324 325 325 325 325 325 325 325 324 325 326 326
311 311 310 309 308 307 309 309 312 313 314 308 307 319 323 320 318 319 319 320 320 320 320 324 326 327 328 327 324 323 323 324 324 324 325 325 325 325 325 325 325 324 326 326
313 312 308 308 307 306 308 310 307 312 316 320 324 325 323 308 305 304 305 311 317 319 319 322 324 327 327 327 325 324 324 324 324 324 324 325 325 324 324 324 325 325 324 325
308 311 308 308 308 308 311 309 311 311 315 325 326 327 319 305 305 304 304 304 305 307 316 321 324 326 327 326 326 324 324 324 324 324 324 325 325 325 325 324 324 324 324 324
305 310 311 309 311 309 310 310 313 311 311 321 328 316 303 303 303 303 304 306 306 307 312 317 323 326 327 326 325 324 324 324 324 324 324 325 325 325 325 325 324 325 324 324
306 310 314 312 306 308 314 315 312 313 320 313 314 307 303 302 302 304 306 306 307 308 308 310 312 317 324 326 325 324 324 324 324 324 324 325 325 325 324 325 325 325 325 325
311 313 315 313 313 312 316 317 317 312 315 322 324 308 310 312 304 304 306 305 305 306 307 308 309 310 313 318 323 324 325 324 324 325 325 325 325 324 324 325 325 324 323 322
310 310 313 316 316 316 316 315 317 318 322 317 318 314 317 316 307 304 303 302 302 302 303 304 306 307 308 311 316 321 324 325 325 325 325 325 325 325 324 326 327 325 326 323
309 312 311 311 311 313 314 315 314 317 317 322 317 319 318 317 309 304 303 302 302 302 301 301 301 301 302 305 308 313 318 322 325 326 326 326 325 325 324 324 325 324 323 321
309 312 311 312 310 311 310 308 313 313 313 315 316 315 313 308 304 304 302 302 302 301 301 300 300 299 300 300 303 307 310 314 317 322 323 324 325 325 325 325 324 323 319 317
310 310 307 313 310 312 310 307 308 306 303 309 315 312 311 304 303 302 302 301 301 300 300 299 298 297 297 298 299 304 307 309 311 314 316 318 318 317 318 318 317 314 312 310
310 307 305 307 308 311 308 304 305 304 302 303 304 303 307 303 302 300 299 299 298 298 297 297 296 295 295 295 296 301 308 309 310 311 312 312 313 313 313 313 313 312 311 311
303 307 307 306 305 311 308 304 305 304 302 299 302 302 301 306 305 301 298 297 296 295 295 294 292 293 293 292 293 296 300 303 305 307 309 310 311 310 309 309 309 309 307 307
299 300 301 298 304 306 309 304 300 301 304 298 300 301 300 303 305 301 297 295 293 293 291 290 290 291 289 289 292 293 295 296 295 297 300 304 308 310 310 310 308 307 307 306
293 291 305 306 298 303 304 301 299 307 305 298 299 299 299 300 298 297 295 293 291 290 289 289 288 288 286 288 290 291 291 290 291 295 299 302 303 307 310 310 308 307 305 303
300 292 303 297 293 302 300 301 305 302 300 300 299 298 298 297 296 295 294 292 290 288 288 287 286 286 285 285 286 286 286 287 289 293 297 299 301 303 304 306 306 304 303 302
294 298 295 299 304 300 299 300 299 298 299 299 299 298 297 297 295 294 293 291 289 287 286 285 284 284 284 284 284 283 285 285 287 290 292 296 297 298 301 301 301 299 299 298
295 296 298 291 293 299 296 297 297 297 298 296 295 297 297 298 295 294 292 290 288 286 284 283 283 281 281 283 284 284 286 288 289 288 290 292 294 295 296 297 300 297 297 297
291 291 290 293 292 292 298 297 295 295 295 294 295 296 296 295 294 294 291 289 287 285 283 282 280 280 281 284 285 285 286 287 286 286 287 290 291 292 293 293 294 297 297 298
290 291 293 291 292 295 297 295 292 295 296 293 293 293 293 292 291 286 284 287 285 283 282 282 281 282 284 285 286 286 286 286 285 284 285 287 289 289 290 291 292 293 293 295
Wind_Speed
5 6 16 16 17 13 5 7 9 14 4 5 18 22 13 14 5 7 8 9 11 14 14 20 26 29 30 33 37 39 39 39 38 37 37 34 35 33 32 30 28 28 26 23
5 20 8 6 7 9 11 13 18 12 8 9 16 18 19 16 17 8 10 10 13 13 9 16 24 29 31 34 38 39 41 41 41 40 38 29 33 35 34 31 30 30 29 26
14 8 11 16 14 14 16 16 16 14 11 10 7 19 15 21 23 16 16 11 12 14 14 12 17 30 29 33 39 40 41 42 43 39 35 30 27 27 32 32 32 32 30 28
14 18 12 12 17 16 17 18 17 12 4 12 6 10 16 18 21 24 21 13 13 12 13 14 18 24 34 40 37 39 41 43 43 41 39 37 33 25 35 38 36 34 32 30
6 7 16 19 17 18 17 10 12 9 16 6 23 7 6 17 20 22 24 22 16 16 16 16 17 30 36 34 36 37 38 40 43 43 42 42 33 31 30 37 36 35 34 32
17 2 8 8 17 16 2 12 8 9 5 10 25 8 8 11 24 20 18 22 20 15 16 16 27 31 29 32 33 37 39 41 43 45 45 43 38 32 34 33 37 38 37 35
11 22 7 8 8 9 14 7 2 4 7 12 10 11 24 10 6 16 21 22 21 18 18 17 18 19 28 32 36 36 38 39 40 43 43 43 42 40 41 41 39 40 41 39
4 7 16 10 12 9 16 12 4 7 5 13 12 10 7 18 10 5 4 11 15 16 16 18 20 24 29 34 38 39 39 39 40 43 43 43 44 42 44 44 42 42 45 44
5 7 3 10 6 13 6 10 18 6 2 4 9 9 2 8 8 8 7 6 7 12 14 18 17 24 28 32 36 41 39 39 39 41 40 40 42 41 40 42 44 43 42 42
5 8 5 7 6 6 6 10 7 9 2 10 4 5 1 10 10 8 8 9 7 6 7 11 14 19 27 33 38 38 41 42 42 39 39 40 39 41 40 41 44 43 42 39
5 5 2 8 7 12 9 6 6 5 8 4 4 1 4 6 7 8 6 8 9 10 6 6 8 17 24 25 27 32 34 35 36 37 39 38 38 40 41 43 43 44 42 39
2 4 1 1 3 4 4 10 13 4 6 8 3 2 5 7 6 5 4 7 6 5 6 5 5 1 8 20 27 28 29 29 34 34 33 37 35 39 41 44 44 44 44 41
6 3 3 1 2 5 3 4 5 6 5 2 3 3 4 6 8 8 8 11 11 12 12 11 11 9 10 5 10 20 26 30 29 31 31 30 33 35 38 42 41 40 40 40
10 2 5 2 2 2 3 2 6 8 3 2 3 8 4 9 11 12 13 13 12 13 13 13 14 11 13 14 8 3 11 20 25 30 31 29 31 38 40 42 36 39 37 39
8 4 2 2 5 2 5 1 3 3 1 3 11 8 4 6 9 7 6 11 14 14 15 14 14 11 16 18 20 12 2 7 18 26 28 30 31 33 34 33 37 39 40 41
6 4 4 4 7 10 12 15 6 3 3 4 7 5 5 11 11 14 14 13 13 11 10 10 11 12 15 20 20 16 12 8 5 13 16 21 27 31 33 34 37 38 37 36
5 6 4 2 4 4 5 14 13 8 11 5 6 6 7 12 14 14 13 12 11 10 12 14 14 11 16 19 19 15 13 10 6 3 6 11 13 17 22 27 28 29 28 28
6 7 2 3 4 5 3 1 6 14 10 10 10 10 9 8 7 8 8 10 12 13 13 10 10 15 18 18 17 13 9 8 9 8 7 9 9 10 14 18 21 24 25 25
3 3 3 3 3 3 2 3 4 4 9 8 7 8 4 7 1 7 9 8 8 9 10 13 16 16 15 19 19 15 8 5 6 8 11 10 7 10 13 15 16 17 19 20
5 4 3 3 4 2 2 4 2 2 7 7 7 9 7 5 5 3 8 6 8 11 12 15 16 12 13 18 16 14 16 14 14 14 13 12 11 12 14 14 16 17 18 20
5 4 5 5 3 3 3 10 2 4 1 4 3 4 6 4 1 4 5 6 9 9 13 18 16 14 20 25 24 24 22 22 20 18 13 11 14 15 15 16 18 20 20 18
3 2 3 2 4 2 7 4 4 0 0 1 2 3 3 2 2 3 4 6 7 11 16 21 17 18 23 26 23 17 20 24 22 18 15 12 10 14 18 18 19 19 19 20
3 3 2 4 3 1 3 2 2 1 1 3 2 3 3 4 4 5 5 6 7 11 13 17 19 20 26 28 28 24 28 27 25 22 18 13 14 15 16 18 20 20 21 23
3 0 2 4 3 0 4 1 2 2 2 2 2 2 2 2 4 5 5 5 5 11 13 17 20 22 24 28 27 26 28 30 30 28 25 21 16 15 16 18 22 25 26 24
4 1 3 5 5 2 2 2 3 4 2 4 4 2 3 3 4 3 4 5 7 9 12 15 18 19 22 24 26 28 29 29 29 27 25 23 19 16 15 18 20 22 22 23
5 6 4 4 4 2 2 3 3 3 3 5 5 6 4 3 5 2 4 4 5 7 9 11 14 17 20 23 25 27 28 28 27 23 23 23 22 18 15 15 17 15 16 16
Wind_Direction
206 212 219 194 207 238 288 291 278 257 227 14 262 253 227 242 224 227 217 194 197 211 209 191 193 192 191 197 194 198 196 204 205 207 206 211 213 212 214 215 212 212 211 212
196 236 241 205 212 232 242 254 268 285 289 267 267 273 251 227 237 209 219 213 198 217 178 192 189 192 194 195 198 200 201 204 207 207 208 208 212 215 216 215 214 213 214 215
220 198 199 207 218 216 224 234 247 250 302 283 259 276 271 235 229 216 219 214 208 201 190 193 186 195 194 199 199 200 202 205 209 208 206 207 214 216 217 217 216 214 216 216
246 240 242 197 219 212 236 218 233 238 268 250 73 285 234 228 231 227 223 207 201 199 197 196 197 195 199 206 200 202 203 205 208 206 206 203 204 204 216 216 216 215 216 217
224 206 221 220 212 201 235 209 222 215 235 274 267 281 241 206 223 224 226 220 212 197 193 194 200 204 207 203 202 201 202 204 208 206 207 207 207 213 218 217 218 216 216 219
244 200 213 221 223 202 113 249 232 232 203 243 243 222 283 218 224 222 221 220 219 203 196 198 203 210 208 203 200 199 200 202 205 207 207 209 209 210 213 213 216 215 216 218
242 237 219 205 196 200 202 221 203 212 204 234 219 220 233 249 247 206 217 218 213 209 199 198 200 202 204 198 200 200 200 202 201 205 207 208 211 212 218 218 215 216 216 217
255 277 189 182 197 191 194 180 219 192 205 244 215 258 249 231 245 192 231 212 213 215 207 209 204 201 200 199 198 200 202 202 203 204 208 208 212 214 220 223 221 223 222 222
269 246 178 188 161 171 180 200 221 314 278 282 181 209 158 17 18 10 4 324 257 217 205 209 210 206 197 199 199 200 202 206 204 205 206 208 213 213 218 222 228 230 229 229
276 285 204 147 183 226 160 164 170 213 210 241 84 114 306 345 334 338 343 311 286 309 258 219 212 204 201 200 201 200 201 204 204 204 206 208 212 215 218 224 228 230 232 232
249 242 63 128 208 169 188 222 220 152 245 312 124 48 347 304 309 308 327 308 353 338 308 261 225 209 202 201 201 203 201 205 205 204 205 206 209 215 217 225 231 234 236 234
230 289 332 310 284 248 180 191 196 175 208 201 223 15 357 336 338 317 342 4 11 2 357 3 19 318 206 194 193 196 201 205 206 208 206 206 206 212 217 224 233 236 237 237
345 309 319 40 21 16 72 133 175 231 307 296 87 155 355 6 29 19 32 40 31 29 24 34 38 32 33 46 196 196 197 206 207 206 206 205 206 208 215 227 230 234 238 240
334 333 333 79 353 333 272 172 170 196 238 210 128 141 48 24 32 24 21 38 34 41 28 36 36 30 33 33 40 122 201 208 208 207 207 204 206 213 219 229 227 237 241 242
350 318 327 21 352 65 18 91 147 173 288 293 152 128 114 50 35 24 14 35 30 31 26 26 28 22 25 28 27 25 354 222 214 211 207 209 214 216 220 222 229 232 232 237
338 308 328 355 7 84 50 22 10 52 9 53 105 68 332 53 37 26 21 24 23 16 29 30 25 21 24 22 13 13 17 357 272 219 209 212 216 220 227 232 235 235 235 230
317 328 351 320 327 343 23 355 12 56 21 344 44 17 49 59 44 31 12 9 19 18 10 13 11 17 21 15 8 11 16 9 339 303 257 247 240 228 223 225 226 227 227 230
303 333 13 305 341 50 53 33 63 61 47 41 32 18 20 91 76 53 25 11 11 1 9 18 8 4 5 3 11 8 21 1 343 331 293 257 234 231 234 230 230 227 229 226
316 319 349 61 31 110 59 17 10 8 37 15 14 16 103 184 239 44 25 20 13 8 6 360 2 9 9 11 9 8 25 345 304 296 291 288 263 235 227 223 224 225 221 214
1 46 103 14 83 86 285 298 346 225 49 6 9 15 22 175 62 340 348 8 10 17 14 6 9 16 22 10 16 22 31 31 6 339 314 292 267 248 241 237 228 221 218 223
339 356 40 20 80 320 315 313 279 73 76 337 5 18 24 60 23 311 345 4 10 13 15 16 26 29 20 20 22 21 16 11 354 340 325 303 282 259 251 246 240 233 225 223
342 61 6 25 57 347 2 352 75 200 269 349 20 28 48 52 9 351 17 10 11 8 11 20 23 27 25 24 22 17 12 358 352 346 328 308 287 274 259 243 233 223 219 207
317 186 212 174 212 347 335 87 339 325 58 1 360 336 355 17 3 348 353 7 9 15 17 21 23 23 26 25 21 12 2 359 355 350 342 315 294 279 260 243 231 214 207 207
251 178 236 36 299 229 335 20 56 63 89 336 341 320 355 5 346 349 358 358 4 16 20 17 24 22 16 20 21 16 8 2 359 355 348 337 315 302 275 249 233 228 211 206
212 57 202 269 286 3 216 144 1 339 16 29 5 19 34 7 348 335 338 343 354 9 18 25 27 23 16 14 17 16 12 6 2 356 349 342 325 305 287 264 249 238 239 230
189 194 163 228 210 160 212 129 341 351 7 22 8 341 355 7 334 339 310 319 351 11 16 26 26 22 15 14 13 13 12 10 4 354 349 341 331 315 289 275 258 253 252 251